Date String (YYYY-MM-DD hh:mm:ss) UTC,Instrument flags,Ambient pressure (hPa),Sample flow (lpm),Bypass flow (lpm),Sample temperature (°C),Ambient temperature (°C),ASC tube jacket temperature (°C),LED temperature (°C),Box temperature (°C),Sample RH (%),Span deviation,Mass concentration (μg/m³),Mass concentration (μg/m³),Mass concentration (μg/m³)
DateTimeUTC,F1_M11,P_M11,Q1_M11,Q2_M11,T1_M11,T2_M11,T3_M11,T4_M11,T5_M11,U1_M11,ZSPAN_M11,X0_M11,X2_M11,X1_M11
2021-09-05 16:00:00,,0831.7,5.00,0.00,29.8,28.3,00.0,38.9,31.6,09.0,0001.2,0020.32,0012.33,0011.73
2021-09-05 16:01:00,,0831.7,5.02,0.00,29.9,28.5,00.0,38.9,31.6,08.7,0001.4,0019.98,0012.35,0011.77
2021-09-05 16:02:00,,0831.7,4.99,0.00,29.9,28.7,00.0,38.9,31.7,08.3,0001.6,0019.10,0012.37,0011.81
2021-09-05 16:03:00,,0831.7,4.99,0.00,29.9,28.8,00.0,38.9,31.7,08.3,0001.7,0018.84,0012.41,0011.83
2021-09-05 16:04:00,,0831.7,4.99,0.00,30.0,28.9,00.0,38.9,31.8,08.7,0001.7,0019.33,0012.46,0011.86
2021-09-05 16:05:00,,0831.8,5.01,0.00,30.0,28.8,00.0,39.0,31.8,08.7,0002.1,0019.20,0012.49,0011.88
2021-09-05 16:06:00,,0831.7,5.00,0.00,29.9,27.3,00.0,38.9,31.4,08.8,0002.3,0019.01,0012.52,0011.89
2021-09-05 16:07:00,,0831.7,5.00,0.00,29.8,26.4,00.0,38.9,31.1,08.9,0002.4,0018.88,0012.57,0011.91
2021-09-05 16:08:00,,0831.7,5.00,0.00,29.7,26.8,00.0,38.9,31.2,08.6,0002.4,0018.69,0012.68,0011.99
2021-09-05 16:09:00,,0831.8,5.00,0.00,29.7,27.2,00.0,38.8,31.2,08.7,0002.6,0018.33,0012.75,0012.05
2021-09-05 16:10:00,,0831.8,5.01,0.00,29.7,27.6,00.0,38.8,31.3,09.1,0002.8,0018.63,0012.80,0012.08
2021-09-05 16:11:00,,0831.8,5.01,0.00,29.7,27.9,00.0,38.8,31.4,09.4,0002.8,0019.22,0012.87,0012.12
2021-09-05 16:12:00,,0831.9,5.00,0.00,29.7,28.2,00.0,38.8,31.5,09.1,0002.8,0020.11,0012.91,0012.16
2021-09-05 16:13:00,,0831.9,5.00,0.00,29.8,28.4,00.0,38.8,31.5,09.7,0002.6,0020.72,0012.97,0012.17
2021-09-05 16:14:00,,0832.0,5.00,0.00,29.8,28.6,00.0,38.8,31.6,09.6,0002.4,0020.91,0012.95,0012.17
2021-09-05 16:15:00,,0831.9,5.00,0.00,29.8,28.8,00.0,38.8,31.7,09.8,0002.2,0020.75,0012.96,0012.19
2021-09-05 16:16:00,,0832.0,4.99,0.00,29.9,28.9,00.0,38.9,31.7,10.3,0002.3,0020.60,0012.95,0012.19
2021-09-05 16:17:00,,0832.0,5.01,0.00,29.9,29.0,00.0,38.9,31.8,10.1,0002.3,0020.25,0012.93,0012.18
2021-09-05 16:18:00,,0831.9,5.00,0.00,30.0,28.6,00.0,38.9,31.7,10.4,0002.4,0019.80,0012.90,0012.17
2021-09-05 16:19:00,,0832.0,5.00,0.00,29.9,27.0,00.0,38.9,31.2,10.1,0002.5,0019.93,0012.79,0012.10
2021-09-05 16:20:00,,0831.9,5.01,0.00,29.7,26.4,00.0,38.9,31.1,10.3,0002.3,0020.21,0012.79,0012.08
2021-09-05 16:21:00,,0831.9,4.99,0.00,29.7,26.9,00.0,38.8,31.2,10.2,0002.5,0019.96,0012.80,0012.12
2021-09-05 16:22:00,,0832.0,5.01,0.00,29.7,27.2,00.0,38.8,31.2,10.6,0002.8,0019.49,0012.82,0012.15
2021-09-05 16:23:00,,0832.0,5.01,0.00,29.7,27.6,00.0,38.8,31.3,10.7,0002.8,0018.71,0012.84,0012.16
2021-09-05 16:24:00,,0832.0,4.98,0.00,29.7,28.0,00.0,38.8,31.4,11.4,0002.6,0018.50,0012.83,0012.16
2021-09-05 16:25:00,,0832.0,5.00,0.00,29.7,28.2,00.0,38.8,31.5,12.1,0002.6,0018.20,0012.83,0012.16
2021-09-05 16:26:00,,0832.0,4.98,0.00,29.7,28.4,00.0,38.8,31.5,11.0,0002.6,0017.90,0012.85,0012.15
2021-09-05 16:27:00,,0831.9,5.00,0.00,29.8,28.6,00.0,38.8,31.6,10.8,0002.5,0017.99,0012.90,0012.18
2021-09-05 16:28:00,,0832.0,5.01,0.00,29.8,28.8,00.0,38.8,31.7,11.2,0002.5,0018.22,0012.96,0012.23
2021-09-05 16:29:00,,0832.0,5.00,0.00,29.9,28.9,00.0,38.8,31.7,11.4,0002.5,0019.23,0012.98,0012.24
2021-09-05 16:30:00,,0832.0,5.00,0.00,29.9,28.1,00.0,38.8,31.5,11.7,0002.4,0019.48,0013.03,0012.26
2021-09-05 16:31:00,,0832.0,5.00,0.00,29.8,26.5,00.0,38.8,31.0,12.2,0002.7,0019.26,0013.01,0012.25
2021-09-05 16:32:00,,0832.0,5.00,0.00,29.6,26.5,00.0,38.8,31.0,12.2,0002.6,0019.81,0013.00,0012.22
2021-09-05 16:33:00,,0832.0,5.01,0.00,29.6,26.9,00.0,38.8,31.1,12.0,0002.2,0019.82,0012.98,0012.20
2021-09-05 16:34:00,,0832.0,5.01,0.00,29.6,27.3,00.0,38.7,31.2,12.0,0002.4,0019.70,0012.96,0012.18
2021-09-05 16:35:00,,0832.0,4.99,0.00,29.6,27.7,00.0,38.7,31.3,12.2,0002.6,0019.43,0012.97,0012.20
2021-09-05 16:36:00,,0831.9,5.00,0.00,29.6,28.0,00.0,38.7,31.4,12.0,0002.7,0019.46,0013.00,0012.25
2021-09-05 16:37:00,,0832.0,5.01,0.00,29.7,28.2,00.0,38.7,31.4,12.0,0002.8,0019.51,0013.01,0012.28
2021-09-05 16:38:00,,0832.0,5.00,0.00,29.7,28.5,00.0,38.7,31.5,13.0,0003.0,0019.48,0012.99,0012.29
2021-09-05 16:39:00,,0832.0,5.01,0.00,29.8,28.6,00.0,38.7,31.6,14.3,0002.8,0019.49,0012.97,0012.25
2021-09-05 16:40:00,,0832.0,4.99,0.00,29.8,28.8,00.0,38.7,31.6,13.6,0002.7,0018.77,0012.97,0012.25
2021-09-05 16:41:00,,0831.9,5.00,0.00,29.8,28.8,00.0,38.8,31.7,12.9,0002.6,0018.42,0012.98,0012.27
2021-09-05 16:42:00,,0832.0,5.01,0.00,29.8,27.6,00.0,38.8,31.3,13.2,0002.3,0018.72,0013.02,0012.28
2021-09-05 16:43:00,,0831.9,4.99,0.00,29.7,26.3,00.0,38.8,31.0,13.9,0001.9,0018.28,0013.03,0012.28
2021-09-05 16:44:00,,0832.0,5.00,0.00,29.6,26.5,00.0,38.7,31.0,14.3,0002.0,0018.59,0013.05,0012.29
2021-09-05 16:45:00,,0832.0,4.99,0.00,29.5,26.9,00.0,38.7,31.1,15.0,0001.7,0018.95,0013.06,0012.28
2021-09-05 16:46:00,,0832.0,5.01,0.00,29.5,27.3,00.0,38.7,31.2,15.1,0002.0,0019.15,0013.07,0012.28
2021-09-05 16:47:00,,0832.0,4.99,0.00,29.6,27.7,00.0,38.7,31.3,15.0,0002.1,0019.62,0013.10,0012.26
2021-09-05 16:48:00,,0832.0,5.00,0.00,29.6,28.0,00.0,38.7,31.3,15.6,0001.5,0020.09,0013.09,0012.22
2021-09-05 16:49:00,,0832.0,5.00,0.00,29.6,28.3,00.0,38.7,31.4,16.2,0001.4,0020.82,0013.14,0012.21
2021-09-05 16:50:00,,0832.0,5.01,0.00,29.7,28.5,00.0,38.7,31.5,16.3,0001.5,0021.50,0013.17,0012.24
2021-09-05 16:51:00,,0832.0,5.00,0.00,29.7,28.6,00.0,38.7,31.5,15.2,0001.2,0022.17,0013.21,0012.25
2021-09-05 16:52:00,,0831.9,4.99,0.00,29.8,28.8,00.0,38.7,31.6,14.1,0001.2,0022.19,0013.20,0012.23
2021-09-05 16:53:00,,0831.9,5.01,0.00,29.8,28.6,00.0,38.7,31.6,15.0,0001.4,0021.87,0013.17,0012.21
2021-09-05 16:54:00,,0831.9,5.00,0.00,29.7,27.0,00.0,38.7,31.2,15.8,0001.6,0022.12,0013.16,0012.19
2021-09-05 16:55:00,,0831.9,4.99,0.00,29.6,26.1,00.0,38.7,31.0,15.1,0001.9,0022.51,0013.15,0012.15
2021-09-05 16:56:00,,0832.0,5.00,0.00,29.5,26.5,00.0,38.7,31.0,13.5,0001.6,0023.61,0013.16,0012.14
2021-09-05 16:57:00,,0831.9,5.01,0.00,29.5,26.9,00.0,38.7,31.1,13.0,0001.6,0023.86,0013.17,0012.13
2021-09-05 16:58:00,,0831.9,4.99,0.00,29.5,27.3,00.0,38.6,31.2,13.2,0001.6,0023.51,0013.15,0012.13
2021-09-05 16:59:00,,0832.0,5.01,0.00,29.5,27.7,00.0,38.6,31.3,14.6,0002.3,0023.00,0013.12,0012.13
